• In France
  • List of Countries
  • For 7 days
  • Water Temperature
  • Satellite Maps
  • Weather Map
  • Weather Widgets
  • user-avatar
    Login

    Hourly Weather Arakani

    Today, 15 October, Monday

    Time Temperature Precipitation Wind Pressure Humidity
    00:00 +10°C° 0 mm 2 mps 692 mmHg 45%
    01:00 +9°C° 0 mm 2 mps 692 mmHg 43%
    02:00 +9°C° 0 mm 2 mps 692 mmHg 42%
    03:00 +10°C° 0 mm 3 mps 692 mmHg 39%
    04:00 +9°C° 0 mm 2 mps 692 mmHg 39%
    05:00 +9°C° 0 mm 2 mps 692 mmHg 39%
    06:00 +9°C° 0 mm 2 mps 692 mmHg 39%
    07:00 +12°C° 0 mm 2 mps 693 mmHg 37%
    08:00 +13°C° 0 mm 2 mps 693 mmHg 35%
    09:00 +15°C° 0 mm 2 mps 694 mmHg 34%
    10:00 +16°C° 0 mm 3 mps 694 mmHg 35%
    11:00 +16°C° 0 mm 3 mps 694 mmHg 36%
    12:00 +16°C° 0 mm 3 mps 694 mmHg 37%
    13:00 +16°C° 0 mm 3 mps 694 mmHg 40%
    14:00 +16°C° 0 mm 3 mps 694 mmHg 44%
    15:00 +15°C° 0 mm 2 mps 694 mmHg 49%
    16:00 +14°C° 0 mm 2 mps 694 mmHg 53%
    17:00 +13°C° 0 mm 1 mps 694 mmHg 58%
    18:00 +13°C° 0 mm 1 mps 694 mmHg 62%
    19:00 +12°C° 0 mm 1 mps 694 mmHg 61%
    20:00 +12°C° 0 mm 1 mps 694 mmHg 61%
    21:00 +12°C° 0 mm 1 mps 695 mmHg 60%
    22:00 +12°C° 0 mm 1 mps 695 mmHg 59%
    23:00 +12°C° 0 mm 1 mps 695 mmHg 59%

    Tomorrow, 16 October, Tuesday

    Time Temperature Precipitation Wind Pressure Humidity
    00:00 +12°C° 0 mm 1 mps 695 mmHg 59%
    01:00 +11°C° 0 mm 1 mps 695 mmHg 60%
    02:00 +11°C° 0 mm 1 mps 695 mmHg 61%
    03:00 +11°C° 0 mm 1 mps 695 mmHg 62%
    04:00 +11°C° 0 mm 1 mps 695 mmHg 63%
    05:00 +11°C° 0 mm 1 mps 694 mmHg 64%
    06:00 +11°C° 0 mm 1 mps 694 mmHg 66%
    07:00 +12°C° 0 mm 1 mps 695 mmHg 61%
    08:00 +14°C° 0 mm 1 mps 695 mmHg 56%
    09:00 +16°C° 0 mm 1 mps 696 mmHg 52%
    10:00 +17°C° 0 mm 2 mps 696 mmHg 52%
    11:00 +18°C° 0 mm 2 mps 696 mmHg 51%
    12:00 +18°C° 0 mm 3 mps 696 mmHg 51%
    13:00 +18°C° 0 mm 3 mps 696 mmHg 53%
    14:00 +18°C° 0 mm 3 mps 696 mmHg 54%
    15:00 +18°C° 0 mm 3 mps 695 mmHg 56%
    16:00 +17°C° 0 mm 2 mps 695 mmHg 65%
    17:00 +15°C° 0 mm 2 mps 695 mmHg 74%
    18:00 +13°C° 0 mm 2 mps 695 mmHg 83%
    19:00 +13°C° 0 mm 1 mps 695 mmHg 83%
    20:00 +13°C° 0 mm 1 mps 695 mmHg 83%
    21:00 +12°C° 0 mm 1 mps 695 mmHg 83%
    22:00 +12°C° 0 mm 2 mps 695 mmHg 82%
    23:00 +12°C° 0 mm 2 mps 695 mmHg 81%

    Day after tomorrow, 17 October, Wednesday

    Time Temperature Precipitation Wind Pressure Humidity
    00:00 +12°C° 0 mm 2 mps 695 mmHg 80%
    01:00 +12°C° 0 mm 2 mps 694 mmHg 79%
    02:00 +12°C° 0 mm 2 mps 694 mmHg 78%
    03:00 +12°C° 0 mm 2 mps 694 mmHg 77%
    04:00 +10°C° 0 mm 2 mps 694 mmHg 76%
    05:00 +10°C° 0 mm 2 mps 694 mmHg 74%
    06:00 +10°C° 0 mm 2 mps 694 mmHg 73%
    07:00 +13°C° 0 mm 2 mps 694 mmHg 65%
    08:00 +15°C° 0 mm 2 mps 695 mmHg 57%
    09:00 +17°C° 0 mm 2 mps 695 mmHg 48%
    10:00 +18°C° 0 mm 2 mps 695 mmHg 47%
    11:00 +19°C° 0 mm 3 mps 695 mmHg 45%
    12:00 +20°C° 0 mm 3 mps 695 mmHg 43%
    13:00 +20°C° 0 mm 3 mps 694 mmHg 46%
    14:00 +20°C° 0 mm 3 mps 694 mmHg 49%
    15:00 +20°C° 0 mm 3 mps 694 mmHg 53%
    16:00 +18°C° 0 mm 3 mps 693 mmHg 62%
    17:00 +16°C° 0 mm 2 mps 693 mmHg 72%
    18:00 +14°C° 0 mm 2 mps 693 mmHg 82%
    19:00 +14°C° 0 mm 2 mps 693 mmHg 80%
    20:00 +14°C° 0 mm 2 mps 693 mmHg 79%
    21:00 +14°C° 0 mm 2 mps 693 mmHg 77%
    22:00 +13°C° 0 mm 2 mps 692 mmHg 74%
    23:00 +13°C° 0 mm 2 mps 692 mmHg 71%

    18 October, Thursday

    Time Temperature Precipitation Wind Pressure Humidity
    00:00 +13°C° 0 mm 2 mps 692 mmHg 68%
    01:00 +13°C° 0 mm 2 mps 692 mmHg 66%
    02:00 +13°C° 0 mm 1 mps 692 mmHg 63%
    03:00 +12°C° 0 mm 1 mps 691 mmHg 61%
    04:00 +12°C° 0 mm 1 mps 691 mmHg 59%
    05:00 +12°C° 0 mm 1 mps 691 mmHg 57%
    06:00 +12°C° 0 mm 1 mps 691 mmHg 55%
    07:00 +14°C° 0 mm 1 mps 692 mmHg 51%
    08:00 +16°C° 0 mm 1 mps 692 mmHg 47%
    09:00 +19°C° 0 mm 1 mps 693 mmHg 43%
    10:00 +20°C° 0 mm 1 mps 693 mmHg 42%
    11:00 +20°C° 0 mm 2 mps 693 mmHg 42%
    12:00 +20°C° 0 mm 2 mps 693 mmHg 42%
    13:00 +20°C° 0 mm 2 mps 692 mmHg 46%
    14:00 +20°C° 0 mm 2 mps 692 mmHg 49%
    15:00 +20°C° 0 mm 2 mps 692 mmHg 53%
    16:00 +18°C° 0 mm 2 mps 692 mmHg 64%
    17:00 +16°C° 0 mm 2 mps 692 mmHg 74%
    18:00 +14°C° 0 mm 1 mps 692 mmHg 85%
    19:00 +14°C° 0 mm 1 mps 692 mmHg 84%
    20:00 +14°C° 0 mm 1 mps 692 mmHg 82%
    21:00 +14°C° 0 mm 1 mps 692 mmHg 81%
    22:00 +13°C° 0 mm 1 mps 692 mmHg 77%
    23:00 +13°C° 0 mm 1 mps 692 mmHg 74%

    19 October, Friday

    Time Temperature Precipitation Wind Pressure Humidity
    00:00 +13°C° 0 mm 1 mps 692 mmHg 70%
    01:00 +13°C° 0 mm 2 mps 692 mmHg 68%
    02:00 +12°C° 0 mm 2 mps 692 mmHg 65%
    03:00 +12°C° 0 mm 2 mps 691 mmHg 62%
    04:00 +12°C° 0 mm 2 mps 691 mmHg 60%
    05:00 +12°C° 0 mm 2 mps 691 mmHg 58%
    06:00 +12°C° 0 mm 2 mps 691 mmHg 55%
    07:00 +14°C° 0 mm 2 mps 692 mmHg 48%
    08:00 +16°C° 0 mm 1 mps 692 mmHg 41%
    09:00 +20°C° 0 mm 1 mps 693 mmHg 35%
    10:00 +19°C° 0 mm 2 mps 693 mmHg 34%
    11:00 +20°C° 0 mm 2 mps 693 mmHg 33%
    12:00 +21°C° 0 mm 3 mps 693 mmHg 32%
    13:00 +21°C° 0 mm 3 mps 692 mmHg 36%
    14:00 +21°C° 0 mm 3 mps 692 mmHg 40%
    15:00 +21°C° 0 mm 3 mps 692 mmHg 44%
    16:00 +19°C° 0 mm 3 mps 692 mmHg 54%
    17:00 +17°C° 0 mm 2 mps 691 mmHg 65%
    18:00 +15°C° 0 mm 2 mps 691 mmHg 75%
    19:00 +15°C° 0 mm 2 mps 691 mmHg 72%
    20:00 +14°C° 0 mm 2 mps 691 mmHg 69%
    21:00 +14°C° 0 mm 2 mps 691 mmHg 67%
    22:00 +14°C° 0 mm 2 mps 691 mmHg 65%
    23:00 +14°C° 0 mm 2 mps 691 mmHg 64%

    20 October, Saturday

    Time Temperature Precipitation Wind Pressure Humidity
    00:00 +13°C° 0 mm 3 mps 690 mmHg 63%
    01:00 +12°C° 0 mm 3 mps 690 mmHg 63%
    02:00 +12°C° 0 mm 3 mps 690 mmHg 63%
    03:00 +12°C° 0 mm 3 mps 690 mmHg 63%
    04:00 +12°C° 0 mm 3 mps 690 mmHg 60%
    05:00 +12°C° 0 mm 3 mps 690 mmHg 57%
    06:00 +12°C° 0 mm 3 mps 689 mmHg 55%
    07:00 +15°C° 0 mm 2 mps 690 mmHg 47%
    08:00 +17°C° 0 mm 2 mps 690 mmHg 40%
    09:00 +20°C° 0 mm 2 mps 690 mmHg 32%
    10:00 +21°C° 0 mm 2 mps 690 mmHg 31%
    11:00 +23°C° 0 mm 2 mps 690 mmHg 30%
    12:00 +24°C° 0 mm 2 mps 690 mmHg 29%
    13:00 +23°C° 0 mm 2 mps 690 mmHg 32%
    14:00 +23°C° 0 mm 2 mps 690 mmHg 35%
    15:00 +23°C° 0 mm 2 mps 689 mmHg 39%
    16:00 +20°C° 0 mm 2 mps 689 mmHg 47%
    17:00 +19°C° 0 mm 1 mps 689 mmHg 55%
    18:00 +16°C° 0 mm 1 mps 689 mmHg 63%
    19:00 +16°C° 0 mm 1 mps 689 mmHg 61%
    20:00 +16°C° 0 mm 1 mps 689 mmHg 59%
    21:00 +16°C° 0 mm 1 mps 689 mmHg 57%
    22:00 +16°C° 0 mm 1 mps 689 mmHg 57%
    23:00 +15°C° 0 mm 1 mps 688 mmHg 57%
    Show more